BSAT-3C (JCSAT-110R)

Last updated on Mon Oct 14 2024 00:02:38 GMT+0000 (Coordinated Universal Time)

1 37776U 11041B 24287.49994925 -.00000352 00000+0 00000+0 0 9990 2 37776 0.0507 63.6262 0000576 22.9916 225.9017 1.00272954 44347
UTC large
Height (km)
Speed (km/s)
/
Latitude / Longitude
Inclination (degrees)
Orbital Period (minutes)
Azimuth
Elevation
Range (km)
Doppler Factor

Next 0 passes for location: London (51.5072 / 0.1276)

Sorry there are no passes over London.